HOTSPR-3 Weather Reports


time (UTC)temp
C
wind
direction
speed
KPH
gust
KPH
rain 1hr
cm
rain 24hr
cm
rain mn
cm
humidity
%
barometer
mb
20260505122433 18 180 3.2 6.4 0.00 0.00 0.00 93 1004.9
20260505121933 18 168 4.8 6.4 0.00 0.00 0.00 92 1004.9
20260505120933 18 189 3.2 9.7 0.00 0.00 0.00 91 1004.5
20260505120433 18 189 4.8 11.3 0.00 0.00 0.00 91 1004.6
20260505114932 18 182 4.8 11.3 0.00 0.00 0.00 92 1004.2
20260505114432 18 180 4.8 9.7 0.00 0.00 0.00 90 1003.8
20260505113932 18 184 6.4 8.0 0.00 0.00 0.00 89 1004.1
20260505113431 18 185 4.8 11.3 0.00 0.00 0.00 89 1003.9
20260505112431 18 186 6.4 8.0 0.00 0.00 0.00 88 1004.0
20260505111931 18 188 8.0 12.9 0.00 0.00 0.00 88 1003.9
20260505110930 18 182 8.0 12.9 0.00 0.00 0.00 87 1003.9
20260505101925 18 177 6.4 11.3 0.00 0.00 0.00 83 1003.7
20260505101425 18 176 4.8 8.0 0.00 0.00 0.00 83 1003.8
20260505100924 18 206 3.2 11.3 0.00 0.00 0.00 82 1003.7
20260505100424 18 168 6.4 14.5 0.00 0.00 0.00 82 1003.9
20260505095924 18 337 1.6 14.5 0.00 0.00 0.00 82 1003.8
20260505095424 18 180 6.4 8.0 0.00 0.00 0.00 82 1003.9
20260505092423 18 170 8.0 14.5 0.00 0.00 0.00 79 1003.8
20260505091422 19 172 8.0 14.5 0.00 0.00 0.00 78 1003.8
20260505085922 19 180 8.0 11.3 0.00 0.00 0.00 77 1004.1
20260505085422 19 184 8.0 11.3 0.00 0.00 0.00 77 1004.1
20260505084921 19 182 6.4 12.9 0.00 0.00 0.00 77 1004.2
20260505084421 19 185 6.4 12.9 0.00 0.00 0.00 76 1004.2
20260505083921 19 180 4.8 11.3 0.00 0.00 0.00 76 1004.2
20260505083421 19 180 6.4 12.9 0.00 0.00 0.00 75 1004.3
20260505082921 19 183 3.2 14.5 0.00 0.00 0.00 75 1004.5
20260505082421 19 212 6.4 9.7 0.00 0.00 0.00 75 1004.5
20260505081920 19 184 8.0 11.3 0.00 0.00 0.00 74 1004.6
20260505081420 19 186 6.4 8.0 0.00 0.00 0.00 73 1004.7
20260505080920 19 182 4.8 9.7 0.00 0.00 0.00 73 1004.7
20260505080420 19 163 6.4 11.3 0.00 0.00 0.00 73 1004.8
20260505075420 19 183 4.8 9.7 0.00 0.00 0.00 72 1004.7
20260505074919 19 184 4.8 8.0 0.00 0.00 0.00 71 1004.8
20260505073919 19 184 4.8 11.3 0.00 0.00 0.00 70 1004.7
20260505073419 19 195 8.0 12.9 0.00 0.00 0.00 70 1004.6
20260505072919 19 184 6.4 14.5 0.00 0.00 0.00 70 1004.6
20260505072418 19 187 6.4 14.5 0.00 0.00 0.00 69 1004.8
20260505071418 19 180 4.8 14.5 0.00 0.00 0.00 69 1004.9
20260505070918 19 163 9.7 11.3 0.00 0.00 0.00 68 1005.1
20260505070418 19 183 9.7 14.5 0.00 0.00 0.00 67 1005.1
20260505065917 19 180 8.0 17.7 0.00 0.00 0.00 67 1005.3
20260505065417 19 188 6.4 14.5 0.00 0.00 0.00 67 1005.3
20260505064917 19 189 4.8 8.0 0.00 0.00 0.00 66 1005.2
20260505064417 19 177 6.4 8.0 0.00 0.00 0.00 66 1005.3
20260505063917 19 318 6.4 9.7 0.00 0.00 0.00 65 1005.4
20260505063417 19 182 6.4 11.3 0.00 0.00 0.00 65 1005.5
20260505062916 20 177 6.4 11.3 0.00 0.00 0.00 65 1005.7
20260505062416 20 180 6.4 14.5 0.00 0.00 0.00 64 1005.8
20260505061916 20 180 4.8 9.7 0.00 0.00 0.00 64 1005.6
20260505061416 20 180 8.0 12.9 0.00 0.00 0.00 64 1005.6
20260505060916 20 212 11.3 12.9 0.00 0.00 0.00 63 1005.9
20260505060415 20 185 6.4 12.9 0.00 0.00 0.00 63 1005.8
20260505055915 20 189 6.4 8.0 0.00 0.00 0.00 63 1005.8
20260505055415 20 180 4.8 11.3 0.00 0.00 0.00 62 1006.0
20260505054915 20 186 9.7 14.5 0.00 0.00 0.00 62 1005.9
20260505054415 20 170 6.4 12.9 0.00 0.00 0.00 61 1006.0
20260505053915 20 185 6.4 9.7 0.00 0.00 0.00 61 1006.1
20260505053414 20 180 6.4 12.9 0.00 0.00 0.00 61 1006.2
20260505052914 20 185 6.4 16.1 0.00 0.00 0.00 60 1006.2
20260505052414 20 183 8.0 11.3 0.00 0.00 0.00 60 1006.2
20260505051914 20 192 8.0 11.3 0.00 0.00 0.00 60 1006.4
20260505051414 20 189 8.0 14.5 0.00 0.00 0.00 59 1006.2
20260505050914 20 182 6.4 12.9 0.00 0.00 0.00 59 1006.2
20260505041412 20 185 4.8 16.1 0.00 0.00 0.00 56 1006.6
20260505040911 20 187 8.0 9.7 0.00 0.00 0.00 56 1006.8
20260505040411 20 327 8.0 11.3 0.00 0.00 0.00 56 1006.8
20260505035911 20 180 4.8 9.7 0.00 0.00 0.00 56 1006.8
20260505035411 20 183 6.4 12.9 0.00 0.00 0.00 56 1006.8
20260505034910 20 176 6.4 12.9 0.00 0.00 0.00 56 1006.9
20260505034410 20 182 6.4 11.3 0.00 0.00 0.00 56 1006.8
20260505033910 20 182 4.8 9.7 0.00 0.00 0.00 56 1006.9
20260505033410 20 180 8.0 9.7 0.00 0.00 0.00 56 1006.8
20260505032909 20 163 4.8 6.4 0.00 0.00 0.00 56 1007.1
20260505032410 20 205 9.7 9.7 0.00 0.00 0.00 55 1007.0
20260505031409 21 182 6.4 9.7 0.00 0.00 0.00 56 1007.2
20260505030909 21 180 4.8 8.0 0.00 0.00 0.00 56 1007.1
20260505030409 21 182 4.8 9.7 0.00 0.00 0.00 56 1007.1
20260505025409 21 186 6.4 9.7 0.00 0.00 0.00 55 1006.9
20260505024908 21 185 8.0 11.3 0.00 0.00 0.00 55 1006.6
20260505023908 21 194 4.8 8.0 0.00 0.00 0.00 54 1006.6
20260505023408 21 176 8.0 12.9 0.00 0.00 0.00 54 1006.5
20260505022908 21 189 8.0 9.7 0.00 0.00 0.00 54 1006.5
20260505021907 21 175 9.7 11.3 0.00 0.00 0.00 54 1006.1
20260505021407 21 190 6.4 9.7 0.00 0.00 0.00 54 1006.1
20260505020906 21 186 8.0 12.9 0.00 0.00 0.00 54 1006.2
20260505020407 21 180 6.4 9.7 0.00 0.00 0.00 53 1006.2
20260505015406 21 182 6.4 9.7 0.00 0.00 0.00 53 1006.3
20260505013406 21 180 4.8 9.7 0.00 0.00 0.00 52 1006.2
20260505012905 22 180 6.4 12.9 0.00 0.00 0.00 52 1006.2
20260505012405 22 330 4.8 11.3 0.00 0.00 0.00 51 1006.2
20260505011405 22 192 8.0 12.9 0.00 0.00 0.00 51 1005.9
20260505010405 22 180 6.4 6.4 0.00 0.00 0.00 50 1005.9
20260505005404 22 180 9.7 9.7 0.00 0.00 0.00 49 1005.9
20260505004404 22 337 8.0 11.3 0.00 0.00 0.00 49 1005.9
20260505003903 22 208 4.8 8.0 0.00 0.00 0.00 49 1006.0
20260505003404 23 326 6.4 9.7 0.00 0.00 0.00 49 1005.9
20260505002903 23 183 4.8 8.0 0.00 0.00 0.00 49 1006.0
20260505002403 23 180 3.2 6.4 0.00 0.00 0.00 48 1006.2
20260505001403 23 184 1.6 6.4 0.00 0.00 0.00 47 1006.1
20260505000402 23 180 4.8 8.0 0.00 0.00 0.00 47 1006.1
20260504235402 23 180 3.2 4.8 0.00 0.00 0.00 46 1006.3
20260504234902 23 180 4.8 8.0 0.00 0.00 0.00 46 1006.2
20260504233401 24 194 6.4 8.0 0.00 0.00 0.00 45 1006.5
20260504232401 24 182 4.8 6.4 0.00 0.00 0.00 45 1006.6
20260504231401 24 180 3.2 8.0 0.00 0.00 0.00 45 1006.8
20260504230900 24 184 4.8 9.7 0.00 0.00 0.00 44 1006.9
20260504230400 24 337 6.4 8.0 0.00 0.00 0.00 44 1006.9
20260504225900 24 180 3.2 8.0 0.00 0.00 0.00 44 1007.0
20260504224856 25 183 4.8 11.3 0.00 0.00 0.00 44 1007.1
20260504224356 25 337 9.7 9.7 0.00 0.00 0.00 43 1007.1
20260504223855 25 182 4.8 12.9 0.00 0.00 0.00 42 1007.0
20260504223355 25 322 8.0 12.9 0.00 0.00 0.00 43 1007.0
20260504222855 25 161 12.9 12.9 0.00 0.00 0.00 43 1007.0
20260504222355 25 191 6.4 9.7 0.00 0.00 0.00 42 1007.2
20260504221855 25 180 8.0 14.5 0.00 0.00 0.00 42 1007.4
20260504221354 25 308 3.2 9.7 0.00 0.00 0.00 42 1007.2
20260504220854 26 177 8.0 16.1 0.00 0.00 0.00 42 1007.1
20260504220354 26 182 4.8 9.7 0.00 0.00 0.00 42 1007.3
20260504215854 26 180 6.4 16.1 0.00 0.00 0.00 42 1007.4
20260504215354 26 186 4.8 11.3 0.00 0.00 0.00 41 1007.3
20260504214854 26 324 8.0 14.5 0.00 0.00 0.00 42 1007.6
20260504214353 26 180 4.8 17.7 0.00 0.00 0.00 41 1007.7
20260504213853 26 186 6.4 12.9 0.00 0.00 0.00 41 1007.6
20260504213353 26 196 4.8 14.5 0.00 0.00 0.00 42 1007.7
20260504212853 26 168 6.4 9.7 0.00 0.00 0.00 41 1007.6
20260504212353 26 323 4.8 11.3 0.00 0.00 0.00 41 1007.7
20260504211852 26 180 4.8 12.9 0.00 0.00 0.00 40 1007.8
20260504211352 26 180 6.4 11.3 0.00 0.00 0.00 40 1007.8
20260504210852 27 174 11.3 12.9 0.00 0.00 0.00 40 1008.0
20260504210352 27 329 11.3 11.3 0.00 0.00 0.00 40 1008.0
20260504205852 27 337 4.8 11.3 0.00 0.00 0.00 40 1008.1
20260504205352 27 183 4.8 11.3 0.00 0.00 0.00 39 1008.1
20260504204851 27 326 8.0 12.9 0.00 0.00 0.00 39 1008.1
20260504204351 27 170 6.4 16.1 0.00 0.00 0.00 39 1008.4
20260504203851 27 327 14.5 16.1 0.00 0.00 0.00 39 1008.4
20260504203351 27 301 4.8 14.5 0.00 0.00 0.00 39 1008.5
20260504202851 27 180 4.8 12.9 0.00 0.00 0.00 39 1008.2
20260504202350 27 182 4.8 11.3 0.00 0.00 0.00 39 1008.5
20260504201850 27 326 8.0 14.5 0.00 0.00 0.00 39 1008.7
20260504201350 27 185 11.3 12.9 0.00 0.00 0.00 39 1008.7
20260504200850 27 180 6.4 19.3 0.00 0.00 0.00 39 1008.8
20260504200350 27 312 6.4 24.1 0.00 0.00 0.00 39 1008.9
20260504195850 27 326 6.4 19.3 0.00 0.00 0.00 39 1009.0
20260504194349 27 337 3.2 11.3 0.00 0.00 0.00 39 1009.2
20260504193849 27 173 6.4 12.9 0.00 0.00 0.00 38 1009.1
20260504193349 27 210 8.0 17.7 0.00 0.00 0.00 39 1009.2
20260504192848 27 326 14.5 14.5 0.00 0.00 0.00 38 1009.4
20260504192348 27 327 6.4 12.9 0.00 0.00 0.00 39 1009.4
20260504191848 27 3 3.2 14.5 0.00 0.00 0.00 39 1009.7
20260504191348 27 180 8.0 16.1 0.00 0.00 0.00 39 1009.5
20260504190848 27 157 4.8 17.7 0.00 0.00 0.00 39 1009.5
20260504190348 27 184 8.0 14.5 0.00 0.00 0.00 39 1009.8
20260504185847 27 180 4.8 17.7 0.00 0.00 0.00 39 1009.8
20260504185347 27 183 9.7 19.3 0.00 0.00 0.00 39 1009.8
20260504184847 27 212 9.7 14.5 0.00 0.00 0.00 39 1009.9
20260504184347 27 180 16.1 19.3 0.00 0.00 0.00 39 1010.1
20260504183847 27 176 8.0 17.7 0.00 0.00 0.00 39 1009.9
20260504183346 27 183 4.8 14.5 0.00 0.00 0.00 39 1010.1
20260504182846 26 180 12.9 17.7 0.00 0.00 0.00 40 1010.3
20260504182346 26 180 12.9 17.7 0.00 0.00 0.00 40 1010.3
20260504181846 26 199 14.5 16.1 0.00 0.00 0.00 41 1010.4
20260504180345 26 345 9.7 16.1 0.00 0.00 0.00 42 1010.4
20260504175845 26 348 8.0 16.1 0.00 0.00 0.00 42 1010.2
20260504175345 25 321 8.0 11.3 0.00 0.00 0.00 43 1010.6
20260504174845 25 157 9.7 16.1 0.00 0.00 0.00 43 1010.4
20260504174345 25 162 11.3 14.5 0.00 0.00 0.00 43 1010.5
20260504173844 25 315 14.5 16.1 0.00 0.00 0.00 43 1010.7
20260504173344 25 312 6.4 17.7 0.00 0.00 0.00 44 1010.6
20260504172844 25 324 6.4 16.1 0.00 0.00 0.00 44 1010.7
20260504172344 25 175 6.4 12.9 0.00 0.00 0.00 44 1010.7
20260504171844 25 173 9.7 17.7 0.00 0.00 0.00 44 1010.7
20260504171344 25 180 14.5 25.7 0.00 0.00 0.00 45 1010.9
20260504170843 24 183 6.4 17.7 0.00 0.00 0.00 45 1010.9
20260504170343 24 318 8.0 16.1 0.00 0.00 0.00 46 1011.0
20260504160337 23 327 8.0 11.3 0.00 0.00 0.00 49 1011.6
20260504150835 22 142 6.4 12.9 0.00 0.00 0.00 53 1011.4
20260504150335 22 326 4.8 20.9 0.00 0.00 0.00 54 1011.6
20260504141333 20 311 6.4 20.9 0.00 0.00 0.00 58 1011.7
20260504140833 20 327 6.4 14.5 0.00 0.00 0.00 58 1011.5